TimeHST,TemperatureF,Dew PointF,Humidity,Sea Level PressureIn,VisibilityMPH,Wind Direction,Wind SpeedMPH,Gust SpeedMPH,PrecipitationIn,Events,Conditions,WindDirDegrees,DateUTC
12:53 AM,75.0,68.0,79,30.01,10.0,ENE,11.5,-,N/A,,Overcast,60,2013-06-16 10:53:00
1:53 AM,73.9,66.9,79,29.99,10.0,NE,11.5,-,N/A,,Partly Cloudy,50,2013-06-16 11:53:00
2:30 AM,73.4,68.0,83,29.99,10.0,ENE,10.4,-,N/A,,Mostly Cloudy,60,2013-06-16 12:30:00
2:45 AM,73.4,69.8,88,29.99,10.0,ENE,11.5,-,0.00,Rain,Light Rain,60,2013-06-16 12:45:00
2:53 AM,73.0,68.0,84,29.98,10.0,ENE,11.5,-,0.00,,Mostly Cloudy,60,2013-06-16 12:53:00
3:32 AM,73.4,69.8,88,29.98,10.0,NE,15.0,-,N/A,,Overcast,50,2013-06-16 13:32:00
3:43 AM,73.4,68.0,83,29.98,10.0,NE,11.5,-,N/A,,Overcast,50,2013-06-16 13:43:00
3:53 AM,73.0,69.1,87,29.98,10.0,NE,10.4,-,N/A,,Overcast,40,2013-06-16 13:53:00
4:38 AM,73.4,68.0,83,29.99,10.0,ENE,13.8,-,N/A,,Overcast,60,2013-06-16 14:38:00
4:46 AM,73.4,68.0,83,29.99,10.0,NE,11.5,-,N/A,,Mostly Cloudy,40,2013-06-16 14:46:00
4:53 AM,73.0,68.0,84,29.98,10.0,ENE,13.8,-,N/A,,Overcast,60,2013-06-16 14:53:00
5:53 AM,73.9,68.0,82,30.00,10.0,ENE,12.7,-,N/A,,Mostly Cloudy,60,2013-06-16 15:53:00
6:53 AM,75.9,68.0,76,30.01,10.0,ENE,12.7,-,N/A,,Overcast,70,2013-06-16 16:53:00
7:53 AM,77.0,68.0,74,30.03,10.0,ENE,15.0,-,N/A,,Overcast,70,2013-06-16 17:53:00
8:53 AM,79.0,68.0,69,30.04,10.0,ENE,15.0,-,N/A,,Mostly Cloudy,70,2013-06-16 18:53:00
9:53 AM,81.0,68.0,65,30.04,10.0,ENE,12.7,-,N/A,,Scattered Clouds,70,2013-06-16 19:53:00
10:53 AM,79.0,68.0,69,30.03,10.0,ENE,12.7,-,N/A,,Mostly Cloudy,70,2013-06-16 20:53:00
11:02 AM,82.4,68.0,62,30.04,10.0,ENE,15.0,-,N/A,,Scattered Clouds,70,2013-06-16 21:02:00
11:53 AM,82.0,68.0,62,30.03,10.0,ENE,17.3,-,N/A,,Scattered Clouds,70,2013-06-16 21:53:00
12:53 PM,81.0,66.9,62,30.02,10.0,ENE,13.8,-,N/A,,Scattered Clouds,60,2013-06-16 22:53:00
1:53 PM,82.0,66.9,60,30.01,10.0,ENE,15.0,-,N/A,,Clear,60,2013-06-16 23:53:00
2:53 PM,82.9,68.0,60,30.00,10.0,ENE,13.8,-,N/A,,Scattered Clouds,60,2013-06-17 00:53:00
3:53 PM,81.0,68.0,65,30.00,10.0,NE,15.0,-,N/A,,Mostly Cloudy,50,2013-06-17 01:53:00
4:35 PM,80.6,69.8,70,30.00,10.0,NE,17.3,-,N/A,,Scattered Clouds,50,2013-06-17 02:35:00
4:48 PM,78.8,68.0,69,30.00,10.0,ENE,16.1,-,N/A,,Mostly Cloudy,60,2013-06-17 02:48:00
4:53 PM,80.1,66.9,64,29.99,10.0,ENE,15.0,-,N/A,,Scattered Clouds,60,2013-06-17 02:53:00
5:41 PM,78.8,68.0,69,30.01,10.0,ENE,16.1,-,N/A,,Mostly Cloudy,60,2013-06-17 03:41:00
5:53 PM,78.1,68.0,71,30.00,10.0,ENE,17.3,-,N/A,,Mostly Cloudy,60,2013-06-17 03:53:00
6:42 PM,75.2,68.0,78,30.02,10.0,ENE,15.0,-,N/A,,Mostly Cloudy,60,2013-06-17 04:42:00
6:53 PM,75.9,68.0,76,30.01,10.0,ENE,15.0,-,N/A,,Mostly Cloudy,60,2013-06-17 04:53:00
7:00 PM,75.2,69.8,83,30.02,10.0,ENE,16.1,-,N/A,,Mostly Cloudy,60,2013-06-17 05:00:00
7:27 PM,75.2,66.2,73,30.03,10.0,ENE,15.0,-,N/A,,Partly Cloudy,60,2013-06-17 05:27:00
7:53 PM,75.0,68.0,79,30.03,10.0,ENE,17.3,-,N/A,,Clear,60,2013-06-17 05:53:00
8:53 PM,75.0,68.0,79,30.04,10.0,ENE,18.4,-,N/A,,Scattered Clouds,70,2013-06-17 06:53:00
9:53 PM,75.0,68.0,79,30.05,10.0,ENE,17.3,-,N/A,,Mostly Cloudy,70,2013-06-17 07:53:00
10:53 PM,75.0,68.0,79,30.06,10.0,ENE,17.3,-,N/A,,Mostly Cloudy,70,2013-06-17 08:53:00
11:53 PM,75.0,66.9,76,30.06,10.0,ENE,16.1,-,N/A,,Scattered Clouds,70,2013-06-17 09:53:00